Flag for Germany Weather past 2 weeks in Ludwigshafen, Rhineland-Palatinate, Germany

Now
63 °F

Sunny.


Feels Like: 63 °F
Forecast: 45 / 71 °F
Wind: 1 mph from North

Location: Baden Wurttemberg - Neuostheim

Current Time: Sep 1, 2014 at 9:47:37 PM

Latest Report: Sep 1, 2014 at 8:50 PM


Visibility: 10 mi

Pressure: 30.15 "Hg

Humidity: 73%

Dew point: 54 °F

Location of LudwigshafenLocation

Historic Weather in Ludwigshafen — Graph

°F

Ludwigshafen temperature yesterday

Maximum temperature yesterday: 66 °F (at 2:50 PM)
Minimum temperature yesterday: 59 °F (at 7:50 AM)
Average temperature yesterday: 62 °F

Past Weeks' High & Low Weather Summary

 TemperatureHumidityPressure
High77 °F (Aug 29, 3:50 PM)100% (Aug 19, 5:50 AM)30.15 "Hg (Aug 19, 5:50 AM)
Low48 °F (Aug 20, 5:50 AM)33% (Aug 21, 4:20 PM)29.65 "Hg (Aug 26, 5:50 AM)
Average63 °F68%29.98 "Hg
* Reported Aug 17 11:20 PM — Sep 1 8:50 PM, Ludwigshafen, Weather by CustomWeather, © 2014

Note: Actual official high and low records may vary slightly from our data, if they occured in-between our weather recording intervals... More about our weather records

Advertising

Ludwigshafen weather history for previous 24 hours

 ConditionsComfort  
Time TempWeatherWind HumidityBarometerVisibility
8:50 PM
Sep 1
63 °FSunny.1 mph73%30.15 "Hg10 mi
8:20 PM63 °FSunny.3 mph68%30.15 "Hg10 mi
7:50 PM64 °FPassing clouds.5 mph64%30.15 "HgN/A
7:20 PM64 °FSunny.3 mph64%30.12 "Hg10 mi
6:50 PM64 °FMore clouds than sun.5 mph60%30.15 "HgN/A
6:20 PM64 °FBroken clouds.1 mph60%30.15 "HgN/A
5:50 PM64 °FMore clouds than sun.2 mph64%30.15 "HgN/A
5:20 PM64 °FMostly cloudy.2 mph64%30.15 "HgN/A
4:50 PM64 °FBroken clouds.3 mph64%30.15 "HgN/A
4:20 PM64 °FBroken clouds.5 mph64%30.15 "HgN/A
3:50 PM64 °FBroken clouds.7 mph60%30.15 "HgN/A
3:20 PM64 °FPartly sunny.3 mph60%30.15 "HgN/A
2:50 PM64 °FSunny.3 mph60%30.15 "Hg10 mi
2:20 PM64 °FBroken clouds.5 mph60%30.15 "HgN/A
1:50 PM64 °FOvercast.3 mph64%30.15 "HgN/A
1:20 PM63 °FBroken clouds.5 mph64%30.15 "HgN/A
12:50 PM64 °FBroken clouds.2 mph60%30.15 "HgN/A
12:20 PM63 °FPartly sunny.3 mph64%30.15 "HgN/A
11:50 AM61 °FBroken clouds.5 mph72%30.15 "HgN/A
11:20 AM61 °FBroken clouds.6 mph72%30.15 "HgN/A
10:50 AM59 °FScattered clouds.6 mph72%30.15 "HgN/A
10:20 AM59 °FPartly sunny.5 mph77%30.15 "HgN/A
9:50 AM57 °FPartly sunny.2 mph82%30.12 "HgN/A
9:20 AM57 °FBroken clouds.5 mph82%30.12 "HgN/A
8:50 AM55 °FBroken clouds.3 mph88%30.12 "HgN/A
8:20 AM55 °FPartly sunny.3 mph88%30.12 "HgN/A
7:50 AM55 °FBroken clouds.2 mph88%30.12 "HgN/A
7:20 AM55 °FPassing clouds.2 mph94%30.09 "HgN/A
6:50 AM54 °FPassing clouds.1 mph94%30.09 "HgN/A
6:20 AM50 °FPassing clouds.No wind94%30.09 "HgN/A
5:50 AM52 °FPassing clouds.1 mph94%30.07 "HgN/A
9:50 PM
Aug 31
59 °FMostly cloudy.No wind88%30.04 "HgN/A
Weather by CustomWeather, © 2014

See weather overviewHow to use our weather pages